This is the latest recevied weather packets stored in our database for station/object JM1YTT-13. If no packets are shown the sender has not sent any weather packets the latest 10 day(s).
| Time | Temp. | Humidity | Pressure | Rain* | Wind** | Luminosity | Snow |
|---|---|---|---|---|---|---|---|
| 1777756390 | 13.33° C | 92% | 1010.9 hPa | 0 mm | - | - | - |
| 1777754590 | 12.78° C | 90% | 1010.6 hPa | 0 mm | - | - | - |
| 1777752790 | 12.78° C | 90% | 1010.3 hPa | 0 mm | - | - | - |
| 1777750990 | 12.22° C | 89% | 1010.6 hPa | 0 mm | - | - | - |
| 1777749190 | 12.22° C | 88% | 1010.2 hPa | 0 mm | - | - | - |
| 1777747390 | 12.22° C | 87% | 1010.3 hPa | 0 mm | - | - | - |
| 1777745590 | 12.22° C | 86% | 1010.4 hPa | 0 mm | - | - | - |
| 1777743790 | 12.22° C | 87% | 1010.2 hPa | 0 mm | - | - | - |
| 1777741990 | 11.67° C | 87% | 1010.1 hPa | 0 mm | - | - | - |
| 1777740190 | 11.67° C | 85% | 1009.9 hPa | 0 mm | - | - | - |
| 1777738390 | 11.67° C | 83% | 1010.2 hPa | 0 mm | - | - | - |
| 1777736590 | 12.22° C | 81% | 1010.5 hPa | 0 mm | - | - | - |
| 1777734790 | 12.78° C | 77% | 1010.3 hPa | 0 mm | - | - | - |
| 1777732990 | 13.33° C | 73% | 1010.4 hPa | 0 mm | - | - | - |
| 1777731190 | 13.89° C | 68% | 1010.5 hPa | 0 mm | - | - | - |
| 1777729390 | 14.44° C | 66% | 1010.2 hPa | 0 mm | - | - | - |
| 1777727590 | 15.56° C | 60% | 1010 hPa | 0 mm | - | - | - |
| 1777725790 | 16.11° C | 53% | 1009.6 hPa | 0 mm | - | - | - |
| 1777723990 | 17.78° C | 50% | 1009.3 hPa | 0 mm | - | - | - |
| 1777722190 | 18.33° C | 40% | 1008.7 hPa | 0 mm | - | - | - |
| 1777720390 | 18.33° C | 42% | 1008.3 hPa | 0 mm | - | - | - |
| 1777718590 | 18.89° C | 44% | 1008 hPa | 0 mm | - | - | - |
| 1777716790 | 20° C | 41% | 1008 hPa | 0 mm | - | - | - |
| 1777714990 | 20.56° C | 40% | 1007.5 hPa | 0 mm | - | - | - |
| 1777713190 | 22.22° C | 36% | 1007.3 hPa | 0 mm | - | - | - |
* Rain latest hour (hover to see other rain measurements)
** Current wind speed in m/s (hover to see current wind gust speed)